• In Uzbekistan
  • List of Countries
  • For 7 days
  • Water Temperature
  • Satellite Maps
  • Weather Map
  • Weather Widgets
  • user-avatar
    Login

    Hourly Weather Harare

    Today, 25 November, Saturday

    Time Temperature Precipitation Wind Pressure Humidity
    00:00 +20°C° 0 mm 1 mps 638 mmHg 75%
    01:00 +20°C° 0 mm 1 mps 638 mmHg 78%
    02:00 +20°C° 0 mm 1 mps 637 mmHg 80%
    03:00 +19°C° 0 mm 1 mps 637 mmHg 82%
    04:00 +19°C° 0 mm 1 mps 637 mmHg 84%
    05:00 +19°C° 0 mm 1 mps 637 mmHg 87%
    06:00 +19°C° 0 mm 2 mps 638 mmHg 82%
    07:00 +20°C° 0 mm 2 mps 638 mmHg 77%
    08:00 +21°C° 0 mm 2 mps 639 mmHg 72%
    09:00 +24°C° 0.8 mm 2 mps 639 mmHg 67%
    10:00 +25°C° 0.8 mm 2 mps 639 mmHg 63%
    11:00 +26°C° 0.8 mm 2 mps 639 mmHg 58%
    12:00 +26°C° 1.4 mm 2 mps 639 mmHg 60%
    13:00 +25°C° 1.4 mm 2 mps 638 mmHg 62%
    14:00 +25°C° 1.4 mm 2 mps 638 mmHg 65%
    15:00 +24°C° 1.7 mm 2 mps 637 mmHg 69%
    16:00 +23°C° 1.7 mm 1 mps 637 mmHg 73%
    17:00 +22°C° 1.7 mm 1 mps 637 mmHg 77%
    18:00 +21°C° 0.1 mm 1 mps 637 mmHg 79%
    19:00 +21°C° 0.1 mm 1 mps 637 mmHg 81%
    20:00 +20°C° 0.1 mm 1 mps 637 mmHg 83%
    21:00 +20°C° 0.1 mm 1 mps 637 mmHg 84%
    22:00 +18°C° 0.1 mm 2 mps 637 mmHg 85%
    23:00 +18°C° 0.1 mm 2 mps 637 mmHg 87%

    Tomorrow, 26 November, Sunday

    Time Temperature Precipitation Wind Pressure Humidity
    00:00 +18°C° 1 mm 2 mps 637 mmHg 88%
    01:00 +18°C° 1 mm 2 mps 637 mmHg 90%
    02:00 +19°C° 1 mm 1 mps 636 mmHg 91%
    03:00 +19°C° 0.7 mm 1 mps 637 mmHg 90%
    04:00 +18°C° 0.7 mm 1 mps 637 mmHg 89%
    05:00 +18°C° 0.7 mm 1 mps 637 mmHg 88%
    06:00 +18°C° 0.4 mm 2 mps 637 mmHg 83%
    07:00 +19°C° 0.4 mm 3 mps 638 mmHg 79%
    08:00 +20°C° 0.4 mm 4 mps 639 mmHg 74%
    09:00 +21°C° 0.6 mm 4 mps 639 mmHg 71%
    10:00 +23°C° 0.6 mm 4 mps 639 mmHg 68%
    11:00 +25°C° 0.6 mm 4 mps 639 mmHg 66%
    12:00 +24°C° 1.3 mm 3 mps 639 mmHg 68%
    13:00 +24°C° 1.3 mm 3 mps 638 mmHg 70%
    14:00 +24°C° 1.3 mm 2 mps 637 mmHg 72%
    15:00 +24°C° 0.4 mm 2 mps 637 mmHg 72%
    16:00 +24°C° 0.4 mm 2 mps 637 mmHg 72%
    17:00 +23°C° 0.4 mm 2 mps 637 mmHg 72%
    18:00 +21°C° 0 mm 2 mps 637 mmHg 77%
    19:00 +21°C° 0 mm 1 mps 637 mmHg 82%
    20:00 +20°C° 0 mm 1 mps 637 mmHg 86%
    21:00 +20°C° 0 mm 1 mps 638 mmHg 86%
    22:00 +19°C° 0 mm 1 mps 638 mmHg 86%
    23:00 +19°C° 0 mm 1 mps 638 mmHg 86%

    Day after tomorrow, 27 November, Monday

    Time Temperature Precipitation Wind Pressure Humidity
    00:00 +19°C° 0 mm 1 mps 638 mmHg 86%
    01:00 +19°C° 0 mm 1 mps 637 mmHg 86%
    02:00 +19°C° 0 mm 1 mps 637 mmHg 87%
    03:00 +18°C° 0.5 mm 1 mps 637 mmHg 88%
    04:00 +18°C° 0.5 mm 1 mps 637 mmHg 90%
    05:00 +16°C° 0.5 mm 0 mps 637 mmHg 91%
    06:00 +19°C° 0.8 mm 1 mps 638 mmHg 88%
    07:00 +20°C° 0.8 mm 1 mps 639 mmHg 84%
    08:00 +21°C° 0.8 mm 1 mps 640 mmHg 81%
    09:00 +23°C° 0.2 mm 1 mps 640 mmHg 73%
    10:00 +25°C° 0.2 mm 1 mps 641 mmHg 66%
    11:00 +26°C° 0.2 mm 1 mps 641 mmHg 58%
    12:00 +26°C° 1 mm 1 mps 640 mmHg 58%
    13:00 +27°C° 1 mm 1 mps 640 mmHg 57%
    14:00 +27°C° 1 mm 1 mps 639 mmHg 57%
    15:00 +26°C° 1.4 mm 1 mps 639 mmHg 62%
    16:00 +24°C° 1.4 mm 2 mps 638 mmHg 68%
    17:00 +23°C° 1.4 mm 2 mps 638 mmHg 73%
    18:00 +21°C° 0.9 mm 3 mps 638 mmHg 77%
    19:00 +20°C° 0.9 mm 3 mps 639 mmHg 80%
    20:00 +19°C° 0.9 mm 4 mps 639 mmHg 84%
    21:00 +18°C° 1.4 mm 4 mps 639 mmHg 86%
    22:00 +18°C° 1.4 mm 3 mps 640 mmHg 87%
    23:00 +18°C° 1.4 mm 3 mps 640 mmHg 88%

    28 November, Tuesday

    Time Temperature Precipitation Wind Pressure Humidity
    00:00 +17°C° 1.1 mm 3 mps 639 mmHg 89%
    01:00 +17°C° 1.1 mm 3 mps 639 mmHg 89%
    02:00 +17°C° 1.1 mm 3 mps 638 mmHg 90%
    03:00 +17°C° 0.1 mm 2 mps 638 mmHg 90%
    04:00 +17°C° 0.1 mm 2 mps 638 mmHg 90%
    05:00 +17°C° 0.1 mm 2 mps 638 mmHg 91%
    06:00 +17°C° 0.1 mm 3 mps 639 mmHg 87%
    07:00 +18°C° 0.1 mm 3 mps 640 mmHg 83%
    08:00 +19°C° 0.1 mm 3 mps 641 mmHg 79%
    09:00 +20°C° 0.4 mm 3 mps 641 mmHg 74%
    10:00 +21°C° 0.4 mm 3 mps 641 mmHg 69%
    11:00 +24°C° 0.4 mm 3 mps 641 mmHg 65%
    12:00 +22°C° 1 mm 3 mps 640 mmHg 66%
    13:00 +23°C° 1 mm 2 mps 639 mmHg 68%
    14:00 +23°C° 1 mm 2 mps 639 mmHg 69%
    15:00 +23°C° 0.9 mm 2 mps 639 mmHg 70%
    16:00 +21°C° 0.9 mm 2 mps 638 mmHg 71%
    17:00 +21°C° 0.9 mm 2 mps 638 mmHg 73%
    18:00 +20°C° 0.3 mm 2 mps 639 mmHg 77%
    19:00 +19°C° 0.3 mm 2 mps 639 mmHg 81%
    20:00 +19°C° 0.3 mm 1 mps 639 mmHg 86%
    21:00 +19°C° 0.1 mm 1 mps 640 mmHg 86%
    22:00 +19°C° 0.1 mm 1 mps 640 mmHg 87%
    23:00 +19°C° 0.1 mm 1 mps 640 mmHg 87%

    29 November, Wednesday

    Time Temperature Precipitation Wind Pressure Humidity
    00:00 +18°C° 0 mm 1 mps 639 mmHg 88%
    01:00 +18°C° 0 mm 1 mps 639 mmHg 89%
    02:00 +18°C° 0 mm 1 mps 639 mmHg 90%
    03:00 +16°C° 0 mm 1 mps 639 mmHg 91%
    04:00 +16°C° 0 mm 1 mps 639 mmHg 92%
    05:00 +16°C° 0 mm 1 mps 639 mmHg 93%
    06:00 +18°C° 0 mm 1 mps 640 mmHg 87%
    07:00 +19°C° 0 mm 1 mps 641 mmHg 82%
    08:00 +21°C° 0 mm 1 mps 641 mmHg 76%
    09:00 +21°C° 0.2 mm 2 mps 642 mmHg 69%
    10:00 +24°C° 0.2 mm 2 mps 642 mmHg 62%
    11:00 +25°C° 0.2 mm 2 mps 642 mmHg 56%
    12:00 +25°C° 0.5 mm 2 mps 641 mmHg 56%
    13:00 +25°C° 0.5 mm 2 mps 640 mmHg 56%
    14:00 +25°C° 0.5 mm 2 mps 639 mmHg 56%
    15:00 +24°C° 0.5 mm 2 mps 639 mmHg 59%
    16:00 +24°C° 0.5 mm 2 mps 639 mmHg 63%
    17:00 +23°C° 0.5 mm 2 mps 639 mmHg 66%
    18:00 +21°C° 0.3 mm 2 mps 639 mmHg 70%
    19:00 +20°C° 0.3 mm 2 mps 639 mmHg 75%
    20:00 +19°C° 0.3 mm 2 mps 639 mmHg 79%
    21:00 +19°C° 0.1 mm 2 mps 640 mmHg 80%
    22:00 +19°C° 0.1 mm 2 mps 640 mmHg 82%
    23:00 +18°C° 0.1 mm 2 mps 640 mmHg 83%

    30 November, Thursday

    Time Temperature Precipitation Wind Pressure Humidity
    00:00 +18°C° 0 mm 2 mps 639 mmHg 85%
    01:00 +17°C° 0 mm 2 mps 639 mmHg 86%
    02:00 +18°C° 0 mm 1 mps 638 mmHg 88%
    03:00 +16°C° 0 mm 1 mps 639 mmHg 90%
    04:00 +16°C° 0 mm 1 mps 639 mmHg 92%
    05:00 +15°C° 0 mm 1 mps 639 mmHg 93%
    06:00 +18°C° 0 mm 1 mps 640 mmHg 86%
    07:00 +20°C° 0 mm 1 mps 641 mmHg 78%
    08:00 +22°C° 0 mm 1 mps 642 mmHg 70%
    09:00 +24°C° 0 mm 1 mps 642 mmHg 63%
    10:00 +26°C° 0 mm 1 mps 642 mmHg 55%
    11:00 +28°C° 0 mm 1 mps 642 mmHg 47%
    12:00 +27°C° 0.1 mm 1 mps 641 mmHg 47%
    13:00 +27°C° 0.1 mm 1 mps 641 mmHg 47%
    14:00 +27°C° 0.1 mm 1 mps 640 mmHg 47%
    15:00 +27°C° 0 mm 1 mps 639 mmHg 48%
    16:00 +26°C° 0 mm 1 mps 639 mmHg 49%
    17:00 +26°C° 0 mm 1 mps 639 mmHg 50%
    18:00 +25°C° 0 mm 1 mps 638 mmHg 55%
    19:00 +23°C° 0 mm 1 mps 638 mmHg 59%
    20:00 +22°C° 0 mm 1 mps 638 mmHg 63%
    21:00 +21°C° 0 mm 1 mps 638 mmHg 65%
    22:00 +20°C° 0 mm 1 mps 638 mmHg 66%
    23:00 +19°C° 0 mm 2 mps 639 mmHg 67%
    Show more